Weather History for Louisville Bowman, KY

Change the Weather History Date:

Tuesday, December 25, 2012

  Actual Average Record
Temperature  
Mean Temperature 36 °F 36 °F  
Max Temperature 37 °F 43 °F 66 °F (1982)
Min Temperature 34 °F 28 °F -7 °F (1983)
Degree Days  
Heating Degree Days 29 30  
Month to date heating degree days 461 682  
Since 1 July heating degree days 1396 1486  
Cooling Degree Days 0 0  
Month to date cooling degree days 3 0  
Year to date cooling degree days 1854 1444  
Moisture  
Dew Point 28 °F    
Average Humidity 73    
Maximum Humidity 82    
Minimum Humidity 64    
Precipitation  
Precipitation 0.02 in 0.13 in 2.09 in (1987)
Month to date precipitation 5.41 3.27  
Year to date precipitation 43.95 44.80  
Sea Level Pressure  
Sea Level Pressure 30.10 in    
Wind  
Wind Speed 8 mph (NE)    
Max Wind Speed 21 mph    
Max Gust Speed 28 mph    
Visibility 9 miles    
Events Rain    
T = Trace of Precipitation, MM = Missing Value Source: NWS Daily Summary

Daily Weather History Graph

Daily Weather History Graph

Search for Another Location

Airport:

Trip Planner

Search our weather history database for the weather conditions in past years. The results will help you decide how hot, cold, wet, or windy it might be!

Date:

Astronomy

Dec. 25, 2012 Rise Set
Actual Time 7:57 AM EST 5:28 PM EST
Civil Twilight 7:28 AM EST 5:58 PM EST
Nautical Twilight 6:54 AM EST 6:31 PM EST
Astronomical Twilight 6:22 AM EST 7:03 PM EST
Moon 3:35 PM EST (12/25) 5:30 AM EST (12/25)
Length of Visible Light 10h 30m
Length of Day
9h 30m
Waxing Gibbous, 93% of the Moon is Illuminated
Dec 25
Waxing Gibbous
Dec 28
Full
Jan 4
Last Quarter
Jan 11
New
Jan 18
First Quarter

Hourly Weather History & Observations

Time (EST) Temp. Windchill Dew Point Humidity Pressure Visibility Wind Dir Wind Speed Gust Speed Precip Events Conditions
12:53 AM 34.0 °F 28.8 °F 27.0 °F 75% 30.07 in 10.0 mi NW 5.8 mph - N/A   Overcast
1:53 AM 34.0 °F 28.0 °F 27.0 °F 75% 30.08 in 10.0 mi NNW 6.9 mph - N/A   Overcast
2:53 AM 34.0 °F 28.8 °F 27.0 °F 75% 30.09 in 10.0 mi NNW 5.8 mph - N/A   Overcast
3:53 AM 34.0 °F 29.8 °F 26.1 °F 73% 30.10 in 10.0 mi NNE 4.6 mph - N/A   Overcast
4:53 AM 34.0 °F - 26.1 °F 73% 30.12 in 10.0 mi Calm Calm - N/A   Overcast
5:53 AM 34.0 °F - 26.1 °F 73% 30.13 in 10.0 mi Calm Calm - N/A   Overcast
6:53 AM 34.0 °F 31.0 °F 27.0 °F 75% 30.14 in 10.0 mi North 3.5 mph - N/A   Overcast
7:53 AM 34.0 °F 28.8 °F 28.0 °F 79% 30.13 in 10.0 mi NNE 5.8 mph - N/A   Overcast
8:53 AM 34.0 °F 31.0 °F 28.0 °F 79% 30.17 in 8.0 mi NNE 3.5 mph - N/A   Overcast
9:53 AM 35.1 °F 29.3 °F 27.0 °F 72% 30.17 in 9.0 mi NE 6.9 mph - N/A   Overcast
10:12 AM 35.6 °F 30.7 °F 28.4 °F 75% 30.17 in 9.0 mi NNE 5.8 mph - N/A   Overcast
10:53 AM 36.0 °F 31.1 °F 28.0 °F 73% 30.18 in 9.0 mi NNE 5.8 mph - N/A   Overcast
11:32 AM 35.6 °F 28.6 °F 28.4 °F 75% 30.16 in 9.0 mi NE 9.2 mph - N/A   Overcast
11:53 AM 37.0 °F 31.0 °F 28.0 °F 70% 30.15 in 9.0 mi NNE 8.1 mph - N/A   Overcast
12:53 PM 37.0 °F 31.6 °F 28.0 °F 70% 30.16 in 9.0 mi ENE 6.9 mph - N/A   Overcast
1:53 PM 37.0 °F 30.4 °F 27.0 °F 67% 30.15 in 9.0 mi East 9.2 mph - N/A   Overcast
2:53 PM 37.0 °F 31.6 °F 28.0 °F 70% 30.13 in 9.0 mi ENE 6.9 mph - N/A   Overcast
3:53 PM 37.0 °F 29.8 °F 28.0 °F 70% 30.09 in 9.0 mi ENE 10.4 mph - N/A   Overcast
4:53 PM 37.0 °F 29.8 °F 28.0 °F 70% 30.09 in 9.0 mi ENE 10.4 mph - N/A   Overcast
5:53 PM 37.0 °F 28.5 °F 28.9 °F 73% 30.07 in 10.0 mi NE 13.8 mph - N/A   Overcast
6:30 PM 37.4 °F 31.4 °F 28.4 °F 70% 30.06 in 10.0 mi NE 8.1 mph - N/A   Scattered Clouds
6:53 PM 37.0 °F 29.3 °F 28.9 °F 73% 30.07 in 10.0 mi NE 11.5 mph 18.4 mph N/A   Mostly Cloudy
7:14 PM 37.4 °F 28.2 °F 30.2 °F 75% 30.07 in 10.0 mi NE 16.1 mph 23.0 mph N/A   Overcast
7:53 PM 37.0 °F 29.8 °F 30.0 °F 76% 30.07 in 10.0 mi NE 10.4 mph - N/A   Overcast
8:53 PM 36.0 °F 28.0 °F 30.0 °F 79% 30.05 in 10.0 mi NE 11.5 mph 20.7 mph N/A   Overcast
9:53 PM 36.0 °F 26.7 °F 28.9 °F 76% 30.03 in 10.0 mi ENE 15.0 mph 23.0 mph N/A   Overcast
10:53 PM 36.0 °F 26.7 °F 28.9 °F 76% 29.97 in 10.0 mi NE 15.0 mph 24.2 mph N/A   Overcast
11:53 PM 35.1 °F 27.9 °F 30.9 °F 85% 29.95 in 5.0 mi NE 9.2 mph 18.4 mph 0.01 in Rain Light Rain